[Iaude] MPEC H66: 2017 HV3 [a=1.19,e=0.15,i=7.5,H=23.8]

mpec at si.edu mpec at si.edu
Tue Apr 25 22:55:22 EDT 2017


M.P.E.C. 2017-H66                                Issued 2017 Apr. 26, 02:52 UT
 
     The Minor Planet Electronic Circulars contain information on unusual
         minor planets and routine data on comets.  They are published
    on behalf of Division F of the International Astronomical Union by the
          Minor Planet Center, Smithsonian Astrophysical Observatory,
                          Cambridge, MA 02138, U.S.A.

             Prepared using the Tamkin Foundation Computer Network

                              MPC at CFA.HARVARD.EDU
            URL http://www.minorplanetcenter.net/    ISSN 1523-6714


                                   2017 HV3
 
Observations:
     K17H03V  C2017 03 07.56010 14 01 28.222-03 19 26.25         23.2 wLEH066F51
     K17H03V  C2017 03 07.57336 14 01 29.611-03 19 05.94         22.9 wLEH066F51
     K17H03V  C2017 03 07.58659 14 01 30.998-03 18 45.57         23.4 wLEH066F51
     K17H03V  C2017 03 07.59982 14 01 32.393-03 18 24.85         22.7 wLEH066F51
     K17H03V  C2017 03 24.44433 14 34 15.072+07 03 09.02         22.1 wLEH066F51
     K17H03V  C2017 03 24.49970 14 34 20.517+07 05 52.13         21.8 wLEH066F51
     K17H03V* C2017 04 24.34379 15 36 31.86 +39 04 08.0          21.1 VqEH066G96
     K17H03V  C2017 04 24.34920 15 36 32.44 +39 04 28.8          21.0 VqEH066G96
     K17H03V  C2017 04 24.36003 15 36 33.65 +39 05 09.2          21.1 VqEH066G96
     K17H03V  C2017 04 24.39670 15 36 37.58 +39 07 27.8          21.7 VqEH066G96
     K17H03V  C2017 04 24.39810 15 36 37.78 +39 07 32.2          21.3 VqEH066G96
     K17H03V  C2017 04 24.39954 15 36 37.85 +39 07 37.8          21.6 VqEH066G96
     K17H03V  C2017 04 24.40081 15 36 38.05 +39 07 42.6          21.4 VqEH066G96
     K17H03V  C2017 04 24.43394 15 36 41.66 +39 09 45.4          21.1 VqEH066I52
     K17H03V  C2017 04 24.43540 15 36 41.87 +39 09 50.5          21.4 VqEH066I52
     K17H03V  C2017 04 24.43685 15 36 41.97 +39 09 55.4          20.9 VqEH066I52
     K17H03V  C2017 04 24.43831 15 36 42.09 +39 10 01.4          20.1 VqEH066I52
     K17H03V KC2017 04 25.03501615 38 08.914+39 47 18.25         20.9 GUEH066J04
     K17H03V KC2017 04 25.04127815 38 09.624+39 47 42.49         20.8 GUEH066J04
     K17H03V KC2017 04 25.04754315 38 10.322+39 48 06.20         20.7 GUEH066J04
     K17H03V KC2017 04 25.29235115 38 42.98 +40 03 06.7          21.5 VuEH066H21
     K17H03V KC2017 04 25.30191815 38 44.05 +40 03 42.2          21.2 VuEH066H21
 
Observer details:
F51 Pan-STARRS 1, Haleakala.  Observers J. Bulger, B. Gibson, T. Goggia,
    T. Lowe, A. Schultz, M. Willman.  Measurers K. Chambers, S. Chastel,
    L. Denneau, H. Flewelling, M. Huber, E. Lilly, E. Magnier, R. Wainscoat,
    C. Waters, R. Weryk.  1.8-m Ritchey-Chretien + CCD.
G96 Mt. Lemmon Survey.  Observer R. A. Kowalski.  Measurers E. J. Christensen,
    D. C. Fuls, A. R. Gibbs, A. D. Grauer, J. A. Johnson, R. A. Kowalski,
    S. M. Larson, G. J. Leonard, R. G. Matheny, R. L. Seaman, F. C. Shelly.
    1.5-m reflector + 10K CCD.
H21 Astronomical Research Observatory, Westfield.  Observer R. Holmes.
    Measurers S. Foglia, L. Buzzi, T. Linder, R. Holmes.  0.76-m f/3.0
    astrograph + CCD.
I52 Steward Observatory, Mt. Lemmon Station.  Observer J. A. Johnson.
    Measurers E. J. Christensen, D. C. Fuls, A. R. Gibbs, A. D. Grauer,
    J. A. Johnson, R. A. Kowalski, S. M. Larson, G. J. Leonard, R. G. Matheny,
    R. L. Seaman, F. C. Shelly.  1.0-m reflector + CCD.
J04 ESA Optical Ground Station, Tenerife.  Observer D. Abreu.  Measurers
    M. Micheli, D. Koschny, E. Schwab, M. Busch, A. Knoefel.  1.0-m f/4.4
    reflector + CCD.
 
Orbital elements:
2017 HV3                                                 Earth MOID = 0.0573 AU
Epoch 2017 Feb. 16.0 TT = JDT 2457800.5                 MPC
M 259.64789              (2000.0)            P               Q
n   0.76246034     Peri.  116.74875     +0.13857598     +0.98944948
a   1.1866552      Node   161.07385     -0.94862355     +0.14487403
e   0.1476467      Incl.    7.48754     -0.28444693     -0.00111440
P   1.29           H   23.8           G   0.15           U   4
Residuals in seconds of arc
170307 F51  0.0   0.1+    170424 G96  0.6+  0.6-    170424 I52  0.9-  0.4+
170307 F51  0.0   0.1-    170424 G96  0.0   0.5+    170425 J04  0.0   0.2-
170307 F51  0.0   0.1-    170424 G96  0.5+  0.3-    170425 J04  0.1+  0.1+
170307 F51  0.1+  0.1+    170424 G96  0.5-  0.0     170425 J04  0.2+  0.1-
170324 F51  0.0   0.1-    170424 G96  0.2+  0.0     170425 H21  0.2-  0.1+
170324 F51  0.0   0.1+    170424 I52  0.2-  0.4+    170425 H21  0.3-  0.0
170424 G96  0.3+  0.3-    170424 I52  0.4+  0.2+
170424 G96  0.2+  0.1-    170424 I52  0.4-  0.2-

Ephemeris:
2017 HV3                 a,e,i = 1.19, 0.15, 7                   q = 1.0114
Date    TT    R. A. (2000) Decl.     Delta      r     Elong.  Phase     V
2017 03 27    14 39 06.3 +09 12 38   0.1851  1.1530   144.1    30.5    21.8
...
2017 04 11    15 08 06.7 +24 23 36   0.1506  1.1181   137.7    37.1    21.4
...
2017 04 19    15 24 40.0 +33 18 30   0.1410  1.1002   129.9    44.4    21.5
...
2017 04 25    15 38 01.8 +39 44 56   0.1371  1.0873   123.3    50.6    21.5
2017 04 26    15 40 22.0 +40 46 35   0.1366  1.0852   122.2    51.7    21.6
2017 04 27    15 42 44.4 +41 47 15   0.1362  1.0832   121.1    52.7    21.6
...
2017 05 03    15 57 57.7 +47 28 15   0.1348  1.0711   114.6    58.8    21.7
...
2017 05 11    16 21 49.2 +53 56 33   0.1343  1.0563   106.7    66.3    21.9
...
2017 05 26    17 22 34.7 +62 48 24   0.1343  1.0333    94.9    77.6    22.2

A. U. Tomatic                (C) Copyright 2017 MPC           M.P.E.C. 2017-H66




More information about the Iaude mailing list